{"data":{"norad_id":56703,"intl_designator":"2023-067R","name":"STARLINK-30132","alt_names":[],"object_type":"PAYLOAD","status":"ACTIVE","operator":null,"country":"US","launch_date":"2023-05-19","launch_site_code":"AFETR","launch_vehicle":null,"mission":null,"orbit_class":"UNKNOWN","rcs_meters":null,"size_class":null,"mass_kg":null,"dimensions":null,"purposes":["comms"],"wikipedia_slug":null,"has_3d_model":false,"image_url":null,"decayed_at":null,"tle_current":{"epoch":"2026-09-20T15:54:29.952288Z","epoch_age_seconds":100850,"freshness":"FRESH","line1":"1 56703U 23067R   26263.66284667  .00001925  00000+0  79459-4 0  9997","line2":"2 56703  42.9968 252.9319 0000965 277.2314  82.8428 15.27583184185480","mean_motion":15.27583184,"eccentricity":9.65e-5,"inclination_deg":42.9968,"raan_deg":252.9319,"arg_perigee_deg":277.2314,"mean_anomaly_deg":82.8428,"bstar":7.9459e-5,"rev_number":18548,"period_min":94.266552229865,"perigee_km":482.37745847654,"apogee_km":483.70166555301,"semimajor_km":6861.1765620148,"source":"CELESTRAK","updated_at":"2026-09-21T09:00:33.483674Z"}}}